Retour au catalogue

COSMOS 946

ActifNavigationLEO
NORAD 10292·PAYLOAD·🇷🇺 Russia

Lancé Aug 24, 1977 depuis Plesetsk Cosmodrome

Loading…

Prochains Passages (prochaines 24 heures)

TLE

FraisSource: Space-Track

Époque: Sep 14, 2026, 11:12 UTC

1 10292U 77079H   26257.46695444 -.00000028  00000-0 -85311-4 0  9992
2 10292  74.0224  68.7690 0031114 255.3417 132.7800 12.44921374210010

Suivez COSMOS 946 en temps réel avec AllMySat

Download on the App Store